Kivalina, AK

1:03 AM AKDT on May 29, 2017 (GMT -0800)
Kivalina

Weather History for PAVL - February, 2013

Change the Weather History Date:

Thursday, February 21, 2013

  Actual Average (PAWN) Record (PAWN)
Temperature  
Mean Temperature -6 °F -  
Max Temperature 1 °F 7 °F 21 °F (1999)
Min Temperature -13 °F -2 °F -44 °F (2017)
Degree Days  
Heating Degree Days 71    
Moisture  
Dew Point -13 °F    
Average Humidity 68    
Maximum Humidity 78    
Minimum Humidity 57    
Precipitation  
Precipitation 0.00 in - - ()
Sea Level Pressure  
Sea Level Pressure 29.69 in    
Wind  
Wind Speed 21 mph (NE)    
Max Wind Speed 31 mph    
Max Gust Speed 36 mph    
Visibility 8 miles    
Events Snow    
Averages and records for this station are not official NWS values.
T = Trace of Precipitation, MM = Missing Value Source: NWS Daily Summary

Daily Weather History Graph

Daily Weather History Graph

Search for Another Location

Airport or City:

Trip Planner

Search our weather history database for the weather conditions in past years. The results will help you decide how hot, cold, wet, or windy it might be!

Date:

Astronomy

Feb. 21, 2013 Rise Set
Actual Time 9:47 AM AKST 6:37 PM AKST
Civil Twilight 8:49 AM AKST 7:35 PM AKST
Nautical Twilight 7:45 AM AKST 8:39 PM AKST
Astronomical Twilight 6:41 AM AKST 9:44 PM AKST
Moon 1:36 PM AKST (2/21) 8:32 AM AKST (2/21)
Length of Visible Light 10h 46m
Length of Day
8h 50m
Waxing Gibbous, 85% of the Moon is Illuminated
Feb 21
Waxing Gibbous
Feb 25
Full
Mar 4
Last Quarter
Mar 11
New
Mar 19
First Quarter

Hourly Weather History & Observations

Time (AKST) Temp. Windchill Dew Point Humidity Pressure Visibility Wind Dir Wind Speed Gust Speed Precip Events Conditions
12:11 AM 1.4 °F -21.9 °F -7.6 °F 66% 29.68 in 5.0 mi ENE 24.2 mph - 0.00 in Snow Blowing Snow
12:21 AM 1.4 °F -23.5 °F -5.8 °F 72% 29.68 in 1.8 mi ENE 28.8 mph - 0.00 in Snow Blowing Snow
12:41 AM -0.4 °F -25.6 °F -5.8 °F 78% 29.69 in 2.0 mi ENE 27.6 mph - 0.00 in Snow Blowing Snow
12:48 AM -0.4 °F -26.7 °F -5.8 °F 78% 29.68 in 1.5 mi ENE 31.1 mph - 0.00 in   Clear
12:53 AM 1.0 °F -24.8 °F -6.0 °F 72% 29.69 in 1.0 mi ENE 31.1 mph - 0.00 in   Clear
1:14 AM 1.4 °F -21.9 °F -7.6 °F 66% 29.69 in 3.0 mi ENE 24.2 mph 35.7 mph 0.00 in Snow Blowing Snow
1:41 AM -0.4 °F -22.8 °F -7.6 °F 72% 29.70 in 2.5 mi East 20.7 mph 29.9 mph 0.00 in Snow Blowing Snow
1:51 AM -0.4 °F -22.8 °F -7.6 °F 72% 29.70 in 4.0 mi East 20.7 mph - 0.00 in Snow Blowing Snow
1:53 AM -0.0 °F -21.3 °F -8.0 °F 69% 29.70 in 4.0 mi East 18.4 mph - 0.00 in   Haze
3:53 AM -2.9 °F -26.7 °F -11.0 °F 68% 29.70 in 10.0 mi ENE 21.9 mph - N/A   Clear
4:53 AM -2.9 °F -20.8 °F -11.0 °F 68% 29.70 in 10.0 mi NE 11.5 mph - N/A   Clear
5:53 AM -6.0 °F -28.4 °F -13.0 °F 72% 29.69 in 10.0 mi NE 17.3 mph - N/A   Clear
6:53 AM -6.0 °F -28.4 °F -14.1 °F 68% 29.69 in 10.0 mi NE 17.3 mph - N/A   Clear
7:53 AM -2.9 °F -26.7 °F -13.0 °F 62% 29.68 in 9.0 mi ENE 21.9 mph - N/A   Clear
8:53 AM -4.0 °F -28.1 °F -11.9 °F 69% 29.66 in 7.0 mi ENE 21.9 mph - 0.00 in   Clear
9:53 AM -4.0 °F -21.2 °F -11.9 °F 69% 29.68 in 10.0 mi NE 10.4 mph - 0.00 in   Clear
10:53 AM -0.0 °F -18.0 °F -11.9 °F 57% 29.69 in 9.0 mi East 12.7 mph 19.6 mph N/A   Clear
11:53 AM -7.1 °F -21.4 °F -17.0 °F 62% 29.69 in 10.0 mi North 6.9 mph - N/A   Clear
12:53 PM -6.0 °F -24.6 °F -15.0 °F 65% 29.69 in 10.0 mi NNE 11.5 mph - 0.00 in   Clear
1:53 PM -6.0 °F -22.6 °F -15.0 °F 65% 29.70 in 10.0 mi NNE 9.2 mph - N/A   Clear
2:53 PM -6.0 °F -25.5 °F -15.0 °F 65% 29.69 in 10.0 mi NNE 12.7 mph - N/A   Clear
3:53 PM -5.1 °F -23.5 °F -15.0 °F 62% 29.68 in 10.0 mi NE 11.5 mph - N/A   Clear
4:53 PM -9.0 °F -31.7 °F -17.0 °F 68% 29.67 in 10.0 mi NE 16.1 mph - N/A   Clear
5:53 PM -8.0 °F -31.6 °F -16.1 °F 68% 29.67 in 10.0 mi NE 18.4 mph - N/A   Clear
6:53 PM -11.0 °F -26.2 °F -18.9 °F 68% 29.68 in 10.0 mi NE 6.9 mph - N/A   Clear
7:53 PM -11.0 °F -29.9 °F -18.9 °F 68% 29.67 in 10.0 mi East 10.4 mph - N/A   Clear
8:53 PM -11.0 °F -33.5 °F -18.9 °F 68% 29.67 in 10.0 mi NE 15.0 mph - N/A   Clear
9:53 PM -13.0 °F -38.2 °F -20.9 °F 68% 29.67 in 10.0 mi NE 18.4 mph - N/A   Clear
10:53 PM -13.0 °F -38.2 °F -20.9 °F 68% 29.69 in 10.0 mi ENE 18.4 mph - N/A   Clear
11:53 PM -13.0 °F -38.2 °F -20.9 °F 68% 29.70 in 10.0 mi NE 18.4 mph - N/A   Clear